Flag for Russia Weather past 2 weeks in Murmansk, Russia

Now
32 °F

Snow flurries. Passing clouds.


Feels Like: 24 °F
Forecast: 31 / 40 °F
Wind: 10 mph from Southeast

Location: Murmansk Airport

Current Time: Apr 1, 2015 at 7:08:23 AM

Latest Report: Apr 1, 2015 at 6:00 AM


Visibility: 1 mi

Pressure: 29.15 "Hg

Humidity: 93%

Dew point: 30 °F

Location of MurmanskLocation

Historic Weather in Murmansk — Graph

°F

Murmansk temperature yesterday

Maximum temperature yesterday: 36 °F (at 9:00 PM)
Minimum temperature yesterday: 30 °F (at 4:30 AM)
Average temperature yesterday: 33 °F

Past Weeks' High & Low Weather Summary

 TemperatureHumidityPressure
High43 °F (Mar 17, 4:00 PM)100% (Mar 20, 1:00 AM)30.57 "Hg (Mar 20, 1:00 AM)
Low-4 °F (Mar 22, 7:30 AM)25% (Mar 27, 2:30 PM)29.15 "Hg (Apr 1, 4:00 AM)
Average26 °F72%29.78 "Hg
* Reported Mar 17 5:00 AM — Apr 1 5:00 AM, Murmansk, Weather by CustomWeather, © 2015

Note: Actual official high and low records may vary slightly from our data, if they occured in-between our weather recording intervals... More about our weather records

Advertising

Murmansk weather history for previous 24 hours

 ConditionsComfort  
Time TempWeatherWind HumidityBarometerVisibility
5:00 AM
Wed, Apr 1
32 °FSnow flurries. Passing clouds.13 mph93%29.15 "Hg3 mi
4:30 AM32 °FSnow flurries. Passing clouds.13 mph93%29.15 "Hg2 mi
4:00 AM32 °FSnow flurries. Passing clouds.15 mph93%29.15 "Hg3 mi
3:30 AM34 °FSnow flurries. Passing clouds.15 mph81%29.18 "Hg4 mi
3:00 AM34 °FPassing clouds.15 mph81%29.18 "HgN/A
2:30 AM36 °FPassing clouds.15 mph75%29.18 "HgN/A
2:00 AM36 °FPassing clouds.13 mph75%29.18 "HgN/A
1:30 AM34 °FSnow flurries. Passing clouds.17 mph81%29.18 "HgN/A
1:00 AM36 °FSnow flurries. Passing clouds.15 mph75%29.18 "HgN/A
12:30 AM34 °FSnow flurries. Passing clouds.17 mph81%29.18 "Hg6 mi
12:00 AM34 °FSnow flurries. Passing clouds.17 mph81%29.18 "Hg6 mi
11:30 PM
Tue, Mar 31
34 °FPassing clouds.17 mph81%29.18 "HgN/A
11:00 PM36 °FPassing clouds.17 mph70%29.18 "HgN/A
10:30 PM36 °FPassing clouds.17 mph70%29.18 "HgN/A
10:00 PM34 °FSnow flurries. Passing clouds.15 mph75%29.18 "HgN/A
9:30 PM34 °FSnow flurries. Passing clouds.15 mph75%29.18 "Hg6 mi
9:00 PM36 °FPassing clouds.15 mph70%29.18 "HgN/A
8:30 PM34 °FPartly sunny.13 mph75%29.18 "HgN/A
8:00 PM34 °FPartly sunny.15 mph75%29.18 "HgN/A
7:30 PM32 °FSnow flurries. Partly sunny.10 mph80%29.18 "HgN/A
7:00 PM34 °FSnow flurries. Partly sunny.13 mph75%29.18 "Hg2 mi
6:30 PM34 °FPartly sunny.15 mph75%29.18 "HgN/A
6:00 PM34 °FPartly sunny.15 mph75%29.18 "HgN/A
5:30 PM34 °FPartly sunny.15 mph70%29.18 "HgN/A
5:00 PM34 °FPartly sunny.15 mph70%29.18 "HgN/A
4:30 PM34 °FPartly sunny.13 mph70%29.18 "HgN/A
4:00 PM34 °FPartly sunny.13 mph70%29.21 "HgN/A
3:30 PM34 °FPartly sunny.15 mph70%29.21 "HgN/A
3:00 PM34 °FPartly sunny.17 mph70%29.21 "HgN/A
2:30 PM32 °FSnow flurries. Partly sunny.10 mph80%29.21 "Hg6 mi
2:00 PM32 °FSnow flurries. Partly sunny.10 mph87%29.21 "Hg2 mi
1:30 PM32 °FSnow flurries. Partly sunny.8 mph87%29.21 "Hg2 mi
1:00 PM32 °FSnow flurries. Partly sunny.8 mph87%29.24 "Hg2 mi
12:30 PM32 °FSnow flurries. Partly sunny.8 mph87%29.24 "Hg2 mi
12:00 PM34 °FSnow flurries. Partly sunny.8 mph75%29.24 "HgN/A
11:30 AM34 °FSnow flurries. Partly sunny.6 mph75%29.24 "Hg6 mi
11:00 AM34 °FSnow flurries. Partly sunny.8 mph75%29.24 "HgN/A
10:30 AM34 °FSnow flurries. Partly sunny.6 mph75%29.24 "Hg6 mi
10:00 AM32 °FSnow flurries. Partly sunny.6 mph87%29.24 "Hg6 mi
9:30 AM32 °FSnow flurries. Partly sunny.6 mph87%29.24 "Hg3 mi
9:00 AM32 °FSnow flurries. Partly sunny.6 mph87%29.24 "Hg6 mi
8:30 AM32 °FSnow flurries. Partly sunny.6 mph87%29.27 "Hg2 mi
8:00 AM30 °FSnow flurries. Partly sunny.3 mph93%29.27 "Hg2 mi
7:30 AM30 °FSnow flurries. Partly sunny.6 mph93%29.27 "Hg3 mi
7:00 AM30 °FSnow flurries. Partly sunny.6 mph93%29.27 "Hg2 mi
Weather by CustomWeather, © 2015

See weather overviewHow to use our weather pages